Temperature
25 26 26 27 27 27 27 27 27 27 27 26 26 26 26 25 24 24 23 22 21 21 20 18 17 17 17 17 16 16 16 16 16 15 15 15 15 15 15 15 15 14 14 14
26 26 27 27 27 26 26 26 26 27 26 26 26 26 26 25 24 23 23 22 21 21 19 18 17 17 17 16 16 16 16 16 15 15 15 15 15 15 14 14 14 14 14 14
26 27 27 26 26 26 26 26 26 26 26 26 25 25 26 25 24 23 22 22 21 20 19 18 17 17 17 16 16 16 16 16 15 15 15 15 15 15 15 14 14 14 14 14
26 27 26 26 26 26 26 27 26 26 26 26 26 26 26 26 24 24 23 22 21 20 19 18 18 17 16 16 16 15 15 15 15 15 15 15 14 14 14 14 14 14 14 14
26 27 26 26 26 27 27 27 26 26 26 26 26 26 26 26 25 24 23 22 21 20 19 18 18 17 16 16 16 15 15 15 15 15 15 15 14 14 14 14 14 14 14 14
27 27 27 27 27 27 27 26 26 26 26 25 26 26 26 26 25 25 24 22 21 20 19 18 18 17 16 16 15 15 15 15 15 15 15 15 14 14 14 14 14 14 14 14
26 26 27 26 26 26 26 25 25 25 25 26 26 26 25 25 25 24 24 22 20 19 19 18 17 17 16 16 16 15 15 15 15 15 15 14 14 14 14 14 14 14 14 14
25 25 26 26 26 26 26 26 25 24 25 26 26 26 26 25 23 23 22 22 20 19 19 18 17 17 16 16 15 15 15 15 15 14 14 14 14 14 14 14 14 14 14 13
25 25 26 26 26 26 26 26 27 26 26 25 26 26 25 24 23 22 22 21 20 19 18 18 17 16 16 16 15 15 15 15 14 14 14 14 14 14 14 14 14 13 13 13
25 25 26 26 26 26 26 26 25 25 24 24 25 25 25 24 23 23 22 21 20 19 18 18 17 16 16 16 15 15 14 14 14 14 14 14 14 14 14 14 13 13 13 13
25 24 25 25 25 25 25 25 25 25 25 24 24 25 24 24 23 23 22 21 20 19 18 17 17 16 16 16 15 15 15 14 14 14 14 14 14 14 14 13 13 13 13 13
25 25 24 25 26 26 26 25 25 24 24 24 25 24 23 23 23 22 21 20 19 19 18 17 17 16 16 15 15 15 15 14 14 14 14 14 14 14 13 13 13 13 13 13
24 23 23 24 24 25 24 25 25 25 24 24 24 23 23 22 22 21 21 20 19 18 18 17 17 16 16 15 15 15 15 14 14 14 14 14 14 14 13 13 13 13 13 13
23 24 24 24 24 25 24 24 24 24 24 24 24 24 23 23 22 21 20 19 18 18 17 17 16 16 15 15 15 15 15 14 14 14 14 14 14 14 13 13 13 13 13 13
23 23 24 24 25 25 24 24 24 24 24 24 24 24 23 22 22 21 19 19 18 17 17 17 16 16 15 15 15 15 15 14 14 14 14 14 14 14 13 13 13 13 13 13
22 23 23 23 24 24 24 24 24 23 23 24 24 23 23 22 21 20 19 18 18 17 17 16 16 15 15 15 14 14 14 14 14 14 14 14 13 13 13 13 13 13 13 13
23 22 23 23 24 23 23 23 23 23 23 23 23 23 22 21 21 20 19 18 18 17 16 16 15 15 14 14 14 14 14 14 14 14 14 14 13 13 13 13 13 13 13 13
21 22 23 23 23 22 23 23 23 23 23 23 22 22 22 21 20 19 18 18 17 17 16 15 15 14 14 14 14 14 14 14 14 14 14 13 13 13 13 13 13 13 13 12
21 21 22 23 23 22 22 22 22 22 22 22 22 22 21 20 20 19 18 17 16 16 15 15 15 14 14 14 14 14 13 13 13 13 13 13 13 13 13 13 13 13 13 12
20 21 22 22 22 21 22 22 22 22 21 21 21 21 20 20 21 20 17 16 16 15 15 15 14 14 14 14 13 13 13 13 13 13 13 13 13 12 12 12 12 12 12 12
20 20 21 21 21 22 21 21 21 21 20 20 20 19 19 20 19 18 16 16 15 15 14 14 14 14 14 13 13 13 13 13 13 13 12 12 12 12 12 12 12 12 12 12
21 21 20 21 21 20 19 20 20 19 18 18 18 18 18 18 17 17 16 15 15 14 14 14 14 14 14 13 13 13 13 13 12 12 12 12 12 12 12 12 12 12 12 12
20 19 20 20 20 18 18 18 17 17 17 17 17 17 17 17 17 16 16 15 15 14 14 14 14 14 13 13 13 13 12 12 12 12 12 12 12 12 12 12 12 12 12 12
18 18 19 18 18 18 17 16 16 16 16 16 16 16 16 17 16 16 15 15 14 14 14 14 14 13 13 13 13 12 12 12 12 12 12 12 12 12 12 12 12 12 13 12
17 17 17 17 17 17 17 16 16 16 16 16 16 16 16 16 16 16 15 14 14 14 14 13 13 13 13 13 13 12 12 12 12 12 12 12 12 12 12 12 12 12 12 12
16 16 16 17 16 16 16 15 15 15 15 15 15 16 15 16 16 15 15 14 14 13 13 13 13 13 13 13 12 12 12 12 12 12 12 12 12 12 12 12 12 12 12 12
Wind_Speed
9 10 12 10 10 9 8 10 9 6 3 5 7 6 4 4 5 5 5 5 6 6 5 5 5 5 5 5 5 5 5 4 3 2 3 2 2 2 1 1 1 2 3 3
10 13 11 9 8 9 9 10 9 5 2 5 6 7 5 4 6 6 5 5 5 5 5 5 5 5 5 4 4 4 4 4 4 3 2 2 2 2 2 1 1 2 3 3
13 8 7 9 10 10 11 10 8 7 5 6 7 7 6 5 4 4 4 4 5 5 6 6 5 5 5 4 4 4 4 4 4 3 2 2 1 1 2 1 1 1 2 2
11 9 9 11 11 11 10 8 7 7 8 6 6 7 5 6 5 5 5 4 4 5 6 6 5 5 5 4 4 4 3 3 3 3 2 2 2 2 2 1 1 1 2 1
9 9 10 12 10 10 9 6 8 9 9 9 9 8 4 6 5 6 6 5 5 5 5 5 5 5 5 4 4 4 3 3 3 3 3 3 2 2 1 1 2 1 2 1
11 9 8 9 7 8 7 6 8 9 9 9 7 8 4 3 4 4 6 6 6 5 5 5 4 5 4 4 4 4 4 3 3 2 2 2 2 2 2 2 2 1 1 1
11 10 9 8 8 8 9 8 6 7 7 6 4 6 2 1 1 3 5 7 7 6 6 6 5 5 5 5 4 4 4 3 2 2 1 2 2 2 2 2 2 1 1 1
9 8 8 8 9 8 10 10 7 6 6 5 5 5 1 3 2 1 3 6 7 7 6 6 6 6 5 5 4 4 4 3 3 2 2 1 1 1 1 1 0 1 0 1
7 7 7 7 8 9 9 10 7 8 9 8 4 3 3 3 2 3 4 5 6 7 6 6 6 5 5 5 5 4 4 3 3 3 3 3 2 1 1 1 1 0 1 1
6 6 6 6 7 7 8 6 5 7 6 7 5 4 1 1 1 3 5 6 6 6 6 6 5 5 4 4 4 4 3 3 4 4 3 2 2 2 2 1 1 0 1 1
7 7 7 8 8 8 8 8 6 6 6 6 5 1 4 2 1 2 4 5 6 6 6 5 5 5 5 4 4 4 4 3 3 3 3 3 2 3 2 2 1 1 1 1
6 5 7 8 4 4 6 7 8 7 6 6 6 0 5 3 2 2 3 4 5 5 5 6 6 5 5 5 4 4 3 3 3 3 3 3 3 3 3 3 2 2 1 1
5 5 6 7 7 7 7 7 8 8 6 7 7 1 4 3 2 2 3 4 5 5 5 5 5 5 5 4 4 3 3 3 3 4 4 3 3 3 3 3 3 2 2 1
5 6 8 8 5 5 7 8 9 10 8 8 7 3 1 1 1 2 3 4 4 5 5 5 5 5 4 4 4 3 4 3 3 3 4 4 3 3 3 3 3 3 2 2
5 7 8 7 6 7 8 8 9 10 10 9 5 4 3 2 1 2 4 4 5 4 4 5 5 4 4 4 4 4 3 3 3 4 4 4 4 3 3 3 3 3 3 2
5 6 8 9 8 7 7 8 9 9 9 8 6 4 2 1 1 2 4 5 4 4 4 4 5 4 4 4 4 3 3 3 4 4 4 4 4 4 4 3 3 3 3 3
6 6 8 9 8 8 9 7 8 8 6 7 6 3 1 1 1 2 4 4 4 3 4 4 4 3 3 3 3 4 3 4 4 4 4 4 4 4 4 4 4 3 3 3
6 7 7 7 7 9 2 1 4 6 5 4 3 2 1 1 1 2 3 4 3 3 3 3 3 3 3 3 3 3 3 4 4 4 4 3 4 4 4 4 4 4 3 3
7 7 6 7 9 6 4 2 4 6 5 4 4 3 1 1 1 2 3 2 2 2 3 3 3 3 3 3 3 3 3 3 3 4 3 3 3 4 4 4 4 4 4 4
5 7 7 7 9 8 2 1 2 5 6 2 2 2 2 3 3 1 3 2 2 2 3 3 3 3 3 3 3 3 3 4 4 4 3 3 3 4 4 4 4 3 3 3
7 6 9 9 8 4 2 0 4 6 1 2 1 1 2 2 2 2 3 3 3 3 3 3 3 3 3 3 3 3 3 3 3 3 3 3 3 4 4 4 4 4 4 3
6 6 7 7 8 3 3 2 1 3 3 1 1 0 1 1 0 1 3 3 3 3 3 3 3 3 3 3 3 3 3 2 3 3 4 3 3 4 3 3 4 4 4 4
2 2 2 2 0 5 3 2 3 3 2 2 1 1 1 2 1 1 2 3 3 3 3 3 3 2 2 3 3 3 2 3 3 3 3 3 3 3 3 4 4 4 4 4
1 2 1 1 2 2 2 3 3 3 2 3 2 2 2 2 2 2 2 3 3 3 3 3 3 2 2 2 2 3 3 3 3 3 3 3 4 4 4 4 4 4 4 4
2 1 2 2 1 1 1 4 4 3 3 3 2 2 2 1 2 2 2 2 3 3 2 2 2 2 2 2 1 1 2 3 3 3 3 4 4 4 4 4 3 4 3 3
2 3 4 2 1 3 2 4 4 3 3 3 2 2 1 1 1 2 2 2 3 3 3 2 2 2 2 1 1 1 2 3 3 3 3 3 4 3 4 4 4 2 2 1
Wind_Direction
203 224 228 228 237 260 262 258 255 264 276 259 263 268 265 226 234 235 221 211 206 197 180 171 174 173 172 174 178 180 177 167 180 191 208 205 215 231 229 227 221 265 266 249
214 229 234 234 235 244 249 251 252 255 244 261 269 268 255 227 232 233 223 210 204 189 174 165 166 170 170 168 174 181 178 170 188 192 214 218 235 240 230 230 187 243 259 260
228 233 217 225 226 234 243 248 252 263 269 245 255 249 224 213 220 219 217 207 198 191 181 174 171 169 171 170 174 181 180 181 190 183 192 177 178 221 196 202 185 221 236 248
238 235 225 228 230 237 242 244 248 252 255 256 243 261 225 201 202 212 208 200 191 187 180 178 172 168 172 169 168 169 174 176 173 181 184 187 207 222 223 218 164 168 179 211
229 221 225 232 236 237 247 239 243 247 256 265 244 255 230 189 212 209 203 197 192 190 182 176 174 168 163 159 160 157 151 155 161 171 171 195 209 222 207 193 160 175 154 178
240 232 235 241 236 231 227 225 235 237 244 250 247 254 253 202 219 206 191 188 185 182 177 173 163 159 158 154 155 150 148 148 147 161 170 187 189 197 187 179 150 159 139 145
226 220 216 222 222 208 217 230 239 235 233 245 218 243 265 85 205 222 193 182 179 177 175 170 166 166 164 165 166 158 156 152 145 145 168 184 187 186 185 194 164 156 147 128
225 218 204 211 226 231 224 235 248 262 257 260 222 240 137 94 95 191 185 171 169 174 174 172 171 171 173 173 173 169 170 163 153 152 157 159 174 197 156 174 193 157 126 73
232 219 193 207 222 231 224 233 259 266 266 263 233 200 174 119 132 155 163 164 168 171 172 173 170 168 169 172 174 178 175 166 164 162 154 153 159 141 108 152 200 139 44 34
242 233 210 195 205 216 241 232 238 252 260 257 232 224 249 95 139 161 167 169 165 165 167 164 164 169 170 168 169 173 175 180 176 170 169 161 163 161 157 163 111 38 345 319
230 226 212 199 213 214 205 212 232 249 265 271 260 175 46 31 64 162 163 162 162 164 166 162 162 170 175 176 173 181 182 190 189 183 179 178 177 174 183 197 191 208 249 248
216 230 219 212 206 234 228 228 226 240 248 261 275 98 70 63 90 129 147 150 151 158 161 162 163 165 171 181 184 186 199 202 198 192 188 189 185 183 193 190 191 199 216 231
197 213 212 204 200 204 216 227 232 247 256 255 258 196 94 86 99 123 141 144 147 153 159 163 167 172 176 181 185 191 206 211 208 198 197 193 192 193 197 193 185 186 194 214
215 227 239 237 233 216 219 225 231 236 244 252 259 267 294 339 71 130 142 145 147 154 162 167 171 177 181 189 194 204 214 218 219 210 203 197 194 195 202 199 190 190 197 208
222 229 240 254 254 242 240 237 229 235 253 265 266 260 297 328 344 152 157 156 157 162 167 173 178 183 188 192 199 211 221 222 219 212 205 200 196 195 197 196 195 198 209 217
219 230 229 235 234 238 240 239 231 235 245 252 258 267 349 16 110 152 166 169 168 172 183 186 188 188 196 199 202 207 215 214 211 209 208 204 203 203 203 203 203 203 212 228
211 219 229 234 222 234 232 235 233 229 236 247 255 269 183 231 181 183 183 178 174 182 189 191 192 194 200 204 203 205 209 209 204 203 205 208 212 212 213 213 204 209 221 231
224 228 236 237 222 237 220 211 233 225 223 233 256 272 255 271 258 188 182 184 185 185 185 185 191 190 192 195 196 198 198 195 193 201 202 210 220 220 217 213 212 221 230 238
219 224 237 240 237 231 197 211 234 232 224 217 231 239 217 181 182 161 151 180 188 179 172 173 178 175 171 179 184 186 192 192 195 205 209 210 216 227 227 223 222 227 231 234
196 225 239 239 243 242 196 140 260 240 221 168 215 221 220 219 246 129 140 171 166 150 154 156 162 160 160 172 183 192 199 204 213 217 218 213 219 231 236 232 228 229 233 237
198 212 231 240 241 231 21 289 208 225 259 65 202 197 217 241 336 36 143 156 156 152 150 148 157 163 169 182 192 206 215 222 227 224 219 218 221 230 233 236 231 230 233 236
219 219 220 233 238 218 56 150 210 5 27 26 27 109 227 269 25 86 141 150 154 158 160 162 163 171 181 191 200 211 220 234 240 232 221 217 220 233 228 233 240 236 235 232
239 302 271 254 91 69 71 54 28 12 5 355 337 317 263 236 227 162 153 159 165 168 170 174 174 170 179 191 204 212 215 222 232 237 231 220 216 230 232 233 235 231 229 246
160 343 240 193 120 72 52 25 360 354 350 343 324 298 251 236 218 185 170 172 172 174 175 180 177 173 179 195 206 215 213 219 228 233 230 219 219 229 227 242 245 247 246 256
325 282 231 209 151 14 20 8 356 351 348 346 335 306 278 259 223 196 189 176 172 167 169 178 184 188 190 203 217 209 204 216 226 233 238 237 231 233 235 237 250 263 269 289
287 281 268 259 307 293 314 342 349 345 340 339 337 330 313 287 236 198 184 174 177 176 166 173 190 197 192 201 220 217 211 213 222 234 244 245 241 237 239 242 237 215 261 215
Height
1494 1492 1488 1485 1485 1484 1485 1486 1487 1485 1483 1486 1485 1485 1485 1488 1490 1490 1492 1493 1495 1497 1500 1501 1502 1503 1504 1505 1505 1506 1507 1508 1508 1509 1509 1510 1510 1510 1510 1511 1510 1510 1511 1511
1489 1487 1482 1482 1484 1486 1486 1487 1485 1483 1483 1486 1485 1484 1483 1485 1487 1489 1490 1492 1494 1496 1498 1500 1500 1501 1502 1503 1504 1505 1505 1506 1507 1507 1507 1508 1508 1509 1509 1509 1508 1508 1509 1509
1483 1479 1480 1483 1484 1486 1484 1483 1483 1484 1483 1482 1485 1484 1481 1482 1485 1488 1489 1491 1493 1494 1496 1498 1499 1500 1501 1502 1503 1504 1504 1505 1505 1506 1506 1506 1506 1507 1508 1507 1507 1507 1507 1507
1478 1477 1479 1481 1480 1481 1483 1477 1480 1482 1483 1481 1482 1486 1477 1477 1481 1484 1487 1489 1491 1493 1495 1497 1498 1499 1500 1501 1502 1503 1503 1504 1504 1504 1505 1505 1505 1506 1506 1506 1506 1506 1506 1506
1475 1475 1477 1478 1477 1477 1477 1476 1478 1478 1480 1480 1477 1481 1475 1473 1477 1480 1484 1487 1489 1491 1493 1495 1497 1498 1500 1501 1501 1502 1502 1502 1503 1503 1504 1504 1505 1505 1506 1505 1505 1505 1505 1505
1472 1473 1474 1473 1474 1476 1475 1477 1477 1476 1476 1486 1475 1479 1477 1470 1474 1476 1481 1485 1488 1491 1493 1494 1496 1498 1499 1500 1501 1501 1501 1501 1502 1502 1503 1503 1503 1504 1504 1505 1505 1505 1505 1505
1472 1469 1471 1473 1474 1475 1475 1480 1487 1487 1485 1480 1469 1475 1475 1470 1473 1475 1478 1483 1487 1490 1492 1494 1495 1496 1498 1499 1500 1500 1500 1501 1501 1501 1502 1502 1503 1503 1503 1504 1504 1505 1505 1505
1473 1473 1468 1469 1471 1472 1472 1475 1486 1492 1486 1474 1469 1473 1470 1471 1474 1477 1479 1482 1486 1488 1490 1492 1494 1496 1497 1498 1499 1499 1500 1500 1501 1501 1501 1501 1502 1503 1503 1503 1504 1504 1504 1504
1469 1470 1464 1466 1467 1468 1470 1470 1466 1474 1473 1476 1469 1468 1468 1472 1474 1477 1479 1481 1484 1487 1489 1491 1493 1495 1496 1497 1497 1498 1499 1499 1500 1500 1500 1501 1501 1502 1502 1502 1503 1503 1503 1503
1465 1472 1464 1465 1467 1467 1466 1466 1472 1475 1484 1483 1472 1470 1470 1470 1472 1475 1478 1480 1483 1486 1488 1490 1492 1493 1494 1496 1497 1498 1498 1498 1499 1499 1500 1501 1501 1501 1502 1502 1502 1502 1502 1502
1464 1471 1468 1466 1468 1467 1469 1470 1470 1470 1471 1480 1480 1476 1468 1470 1472 1474 1476 1479 1482 1485 1487 1489 1491 1492 1494 1495 1496 1497 1497 1498 1498 1499 1499 1500 1500 1500 1501 1501 1501 1501 1501 1501
1465 1466 1468 1465 1463 1463 1463 1466 1469 1478 1477 1473 1474 1479 1470 1471 1472 1475 1477 1480 1482 1484 1486 1488 1490 1492 1493 1494 1495 1496 1496 1497 1497 1498 1498 1499 1499 1499 1500 1500 1500 1500 1500 1500
1466 1469 1474 1472 1471 1467 1466 1465 1465 1467 1470 1473 1475 1478 1471 1472 1473 1475 1477 1479 1482 1484 1486 1487 1489 1490 1492 1493 1494 1494 1495 1495 1496 1497 1497 1497 1498 1498 1498 1499 1499 1499 1499 1499
1466 1465 1468 1471 1465 1461 1465 1466 1465 1466 1469 1470 1469 1469 1469 1470 1472 1475 1477 1479 1481 1483 1484 1486 1487 1489 1490 1491 1492 1493 1493 1494 1494 1495 1496 1496 1496 1497 1497 1497 1498 1498 1498 1498
1465 1464 1462 1460 1458 1459 1462 1463 1464 1466 1464 1466 1465 1467 1468 1470 1472 1474 1477 1479 1480 1482 1483 1485 1486 1487 1488 1489 1490 1491 1491 1492 1492 1493 1494 1494 1495 1495 1495 1496 1496 1496 1497 1497
1465 1464 1463 1463 1459 1459 1462 1461 1462 1464 1464 1464 1464 1467 1467 1471 1473 1474 1476 1478 1479 1481 1482 1484 1485 1486 1486 1487 1488 1488 1489 1490 1490 1491 1492 1493 1494 1494 1494 1494 1495 1495 1495 1495
1462 1464 1464 1463 1459 1461 1465 1461 1460 1462 1463 1464 1466 1467 1468 1470 1472 1474 1475 1477 1478 1480 1481 1482 1483 1484 1484 1485 1486 1486 1487 1488 1489 1490 1490 1491 1492 1492 1492 1493 1493 1493 1493 1493
1463 1463 1460 1458 1463 1472 1463 1457 1458 1460 1462 1463 1464 1466 1468 1470 1472 1473 1475 1476 1477 1478 1479 1480 1481 1482 1483 1483 1484 1485 1485 1486 1487 1487 1488 1489 1490 1490 1491 1491 1490 1491 1491 1491
1462 1462 1459 1459 1461 1463 1461 1460 1460 1461 1462 1463 1464 1466 1468 1470 1471 1471 1474 1475 1477 1477 1478 1479 1480 1480 1481 1481 1482 1483 1483 1484 1485 1485 1486 1486 1487 1488 1488 1488 1488 1488 1488 1487
1461 1461 1460 1459 1464 1467 1460 1459 1460 1462 1463 1464 1465 1466 1468 1469 1466 1468 1473 1474 1475 1476 1477 1477 1478 1479 1479 1480 1481 1481 1482 1482 1483 1483 1484 1484 1484 1485 1485 1485 1485 1485 1485 1485
1460 1461 1460 1459 1461 1458 1460 1460 1461 1467 1465 1466 1466 1466 1467 1468 1469 1471 1471 1473 1474 1475 1476 1476 1477 1477 1478 1479 1479 1480 1480 1481 1481 1481 1482 1482 1482 1482 1482 1483 1483 1483 1483 1482
1456 1457 1459 1459 1461 1464 1463 1461 1463 1465 1467 1467 1467 1467 1468 1469 1470 1471 1471 1472 1472 1473 1474 1475 1475 1476 1476 1477 1477 1478 1478 1479 1479 1479 1479 1480 1479 1480 1480 1480 1480 1480 1480 1480
1457 1459 1456 1459 1463 1466 1466 1466 1468 1468 1468 1468 1468 1468 1468 1469 1470 1470 1470 1471 1472 1472 1473 1474 1474 1474 1475 1475 1476 1476 1476 1476 1477 1477 1477 1477 1477 1477 1478 1478 1478 1478 1478 1478
1462 1463 1461 1462 1464 1466 1467 1468 1469 1468 1468 1468 1468 1467 1468 1468 1468 1469 1469 1470 1471 1471 1472 1472 1473 1473 1473 1474 1474 1474 1474 1475 1475 1475 1474 1475 1475 1475 1475 1475 1476 1476 1476 1475
1466 1465 1463 1464 1466 1467 1468 1469 1469 1468 1468 1467 1467 1466 1466 1466 1466 1467 1468 1468 1469 1469 1470 1471 1471 1471 1472 1472 1473 1473 1473 1473 1473 1473 1473 1473 1474 1474 1474 1474 1473 1473 1473 1472
1469 1469 1467 1465 1468 1468 1469 1469 1469 1468 1467 1466 1466 1465 1465 1465 1465 1466 1467 1467 1467 1468 1468 1469 1470 1470 1470 1470 1471 1471 1471 1471 1471 1471 1471 1472 1472 1472 1472 1472 1471 1470 1469 1468